Location: Rometta
(44.2000°N, 10.0500°E)
Time: 12:08:17
(UTC+00:00)

YAOGAN 1 - Pass Details

Date: 20 January 2021
Orbit: 618 x 620 km, 97.9° (Epoch: 06 March)

Event Time Altitude Azimuth Distance (km) Brightness Sun altitude
Rises 16:52:44 0° 127° (SE) 2,888 5.7 -7.2°
Reaches altitude 10° 16:55:25 10° 109° (ESE) 1,987 4.7 -7.7°
Maximum altitude 16:58:28 19° 64° (ENE) 1,480 3.9 -8.2°
Drops below altitude 10° 17:01:32 10° 19° (NNE) 1,998 4.8 -8.7°
Sets 17:04:14 0° 2° (N) 2,909 5.8 -9.2°
